Regional Weather Roundup
Issued by NWS

Home | Current Version | Previous Version | Text Only | Print | Product List | Glossary Off
Versions: 1 2 3 4 5 6 7 8 9 10 11 12 13 14 15 16 17 18 19 20 21 22 23 24 25 26 27 28 29 30 31 32 33 34 35 36 37 38 39 40 41 42 43 44 45 46 47 48 49 50

000
ASUS43 KOAX 142310
RWRNE

WEATHER ROUNDUP FOR NEBRASKA
NATIONAL WEATHER SERVICE OMAHA NE
500 PM CST THU DEC 14 2017

NOTES: SATELLITE DATA IS BEING USED TO AUGMENT CLOUD COVER ABOVE
       12000 FEET.
       "FAIR" INDICATES FEW OR NO CLOUDS BELOW 12,000 FEET WITH NO
       SIGNIFICANT WEATHER AND/OR OBSTRUCTIONS TO VISIBILITY.


NEZ001>004-019>022-054>056-150000-
NEBRASKA PANHANDLE

CITY           SKY/WX    TMP DP  RH WIND       PRES   REMARKS
SCOTTSBLUFF    CLOUDY    34  20  56 N20       30.22S WCI  23
ALLIANCE       CLOUDY    31  22  69 N12       30.19R WCI  22
CHADRON        CLOUDY    35  20  54 NW15      30.22S WCI  25
GORDON         CLOUDY    32  26  78 NW10      30.18S WCI  23
KIMBALL        CLOUDY    32  18  57 N16G28    30.20R WCI  21
SIDNEY         CLOUDY    33  16  49 N22G32    30.20R WCI  21
$$

NEZ057>060-069>072-079>082-150000-
SOUTHWEST NEBRASKA

CITY           SKY/WX    TMP DP  RH WIND       PRES   REMARKS
NORTH PLATTE   CLOUDY    37  25  61 N15G25    30.17R WCI  28
IMPERIAL       CLOUDY    35  26  69 NW13      30.19R WCI  26
LEXINGTON      CLOUDY    38  28  68 N18       30.15R WCI  28
MCCOOK         CLOUDY    38  22  52 N24G30    30.17R WCI  27
OGALLALA       CLOUDY    37  21  53 N17G23    30.19R WCI  27
$$

NEZ005>010-023>029-035>040-094-150000-
NORTH CENTRAL NEBRASKA

CITY           SKY/WX    TMP DP  RH WIND       PRES   REMARKS
VALENTINE      CLOUDY    34  29  82 NW16G22   30.16R WCI  24
AINSWORTH      CLOUDY    32  31  94 N15       30.14S WCI  22
BROKEN BOW     LGT SNOW  34  33  96 N24G35    30.14R FOG     WCI  21
O`NEILL        CLOUDY    33  32  95 NW15G21   30.12R WCI  23
ORD            CLOUDY    34  31  88 N17       30.12R WCI  23
THEDFORD       CLOUDY    33  29  85 NW17G24   30.16S WCI  22
$$

NEZ041-046>049-061>064-073>077-083>087-150000-
SOUTH CENTRAL NEBRASKA

CITY           SKY/WX    TMP DP  RH WIND       PRES   REMARKS
GRAND ISLAND   CLOUDY    36  33  89 N17       30.12R WCI  26
AURORA         DRIZZLE   36  34  93 N14G20    30.11R WCI  27
HASTINGS       CLOUDY    36  32  85 N15       30.12R WCI  27
HEBRON         DRIZZLE   38  36  91 N5        30.11R WCI  35
HOLDREGE       CLOUDY    37  29  75 N17G28    30.14R WCI  27
KEARNEY        CLOUDY    35  32  88 N13       30.14R WCI  26
YORK           CLOUDY    36  36 100 NW9       30.10S WCI  29
$$

NEZ011>018-030>034-042>045-150000-
NORTHEAST NEBRASKA

CITY           SKY/WX    TMP DP  RH WIND       PRES   REMARKS
NORFOLK        CLOUDY    35  31  85 NW8       30.07R WCI  29
ALBION         LGT RAIN  36  32  87 NW14      30.11R WCI  27
BLAIR          CLOUDY    39  27  62 N6        30.07R WCI  35
FREMONT        CLOUDY    39  27  62 NW8       30.09R WCI  33
TEKAMAH        CLOUDY    38  24  57 NW3       30.08R
WAYNE          CLOUDY    36  28  73 NW10      30.08S WCI  29
$$

NEZ050>053-065>068-078-088>093-150000-
SOUTHEAST NEBRASKA

CITY           SKY/WX    TMP DP  RH WIND       PRES   REMARKS
LINCOLN        CLOUDY    37  33  85 NW8       30.11R WCI  31
OMAHA EPPLEY   CLOUDY    39  25  57 N7        30.08R WCI  34
BEATRICE       LGT RAIN  37  34  88 NW12      30.10R WCI  30
FALLS CITY     CLOUDY    41  25  53 NW8       30.07R
NEBRASKA CITY  CLOUDY    40  28  62 NW8       30.08R WCI  34
PLATTSMOUTH    CLOUDY    39  28  64 N6        30.07S WCI  35
$$

NEZ044-045-051>053-067-150000-
OMAHA AREA

CITY           SKY/WX    TMP DP  RH WIND       PRES   REMARKS
OMAHA EPPLEY   CLOUDY    39  25  57 N7        30.08R WCI  34
BLAIR          CLOUDY    39  27  62 N6        30.07R WCI  35
FREMONT        CLOUDY    39  27  62 NW8       30.09R WCI  33
MILLARD        CLOUDY    41  28  57 N5        30.08S
OFFUTT AFB     CLOUDY    40  25  55 N6        30.08R
PLATTSMOUTH    CLOUDY    39  28  64 N6        30.07S WCI  35
WAHOO          CLOUDY    40  26  58 NW9       30.09R WCI  34
$$



USA.gov is the U.S. government's official web portal to all federal, state and local government web resources and services.